Tracking 29892 objects as of 21-Nov-2024
HD Live streaming from Space Station
objects crossing your sky now

DMSP 5D-3 F16 DEB

Track DMSP 5D-3 F16 DEB now!
10-day predictions


NORAD ID: 28081
Int'l Code: 2003-048E
Perigee: 708.7 km
Apogee: 723.8 km
Inclination: 98.5 °
Period: 99.0 minutes
Semi major axis: 7087 km
RCS: 0.1421 m2 (medium)
Launch date: October 18, 2003
Source: United States (US)
Launch site: AIR FORCE WESTERN TEST RANGE (AFWTR)

Note: This is SATELLITE DEBRIS
Your satellite tracking list
Your tracking list is empty




NASA's NSSDC Master Catalog

Two Line Element Set (TLE):
1 28081U 03048E   24325.83033857  .00020483  00000-0  47420-2 0  9993
2 28081  98.5376 328.9169 0010626 154.3315 205.8411 14.55079554 93080
Source of the keplerian elements: AFSPC